Regional Weather Roundup
Issued by NWS Midland/Odessa, TX

Skip options and go directly to product.
Home | Oldest Version | Previous Version | Current Version | All | Graphics & Text | Save Text | Print | Product List | Glossary On

Skip product version selection by date and time.   
325
ASUS44 KMAF 270401
RWRMAF
MIDLAND AREA WEATHER ROUNDUP
NATIONAL WEATHER SERVICE MIDLAND TX
1100 PM CDT SUN APR 26 2015

...IN SOUTHWEST TEXAS AND SOUTHEAST NEW MEXICO...

CITY           SKY/WX    TMP DP  RH WIND       PRES   REMARKS
ALPINE         PTCLDY    57  28  33 W5        29.88R
ANDREWS        FAIR      61  33  35 W8G17     29.75R
ARTESIA        MOCLDY    59  37  44 W12       29.78R
BIG SPRING     CLOUDY    66  48  52 N15G21    29.75R
CARLSBAD       MOCLDY    62  33  33 W13       29.75R
DRYDEN           N/A     74  26  16 N16G29    29.70R
FORT STOCKTON  PTCLDY    63  29  27 NW13      29.78R
GUAD PASS      NOT AVBL
HOBBS          PTCLDY    55  36  47 W24G32    29.76R
MARFA          PTCLDY    54  28  37 NE3       29.87R
MIDLAND AIRPK  CLOUDY    68  30  24 W12G18    29.76R
MIDLAND INTL   CLOUDY    65  32  29 NW10      29.76R
ODESSA         CLOUDY    63  29  27 NW10      29.76R
PECOS          PTCLDY    64  32  31 W14G20    29.76R
PRESIDIO       FAIR      69  29  23 W13G18    29.78R
SEMINOLE       MOCLDY    58  31  36 W12       29.73S
SNYDER         DRIZZLE   60  51  71 NW16      29.79R
WINK           PTCLDY    60  31  33 W7        29.74R
$$
...OTHER STATIONS IN TEXAS...

CITY           SKY/WX    TMP DP  RH WIND       PRES   REMARKS
ABILENE        PTCLDY    63  52  67 N10       29.67R
AMARILLO       CLOUDY    49  48  97 NE20      29.83F
AUSTIN         MOCLDY    72  66  81 SE12      29.55F
BROWNSVILLE    CLOUDY    80  78  94 SE5       29.57S FOG
CORPUS CHRISTI CLOUDY    78  76  93 SE10      29.57S FOG
DALLAS FTW     TSTM      75  64  68 NE14G28   29.66R
DEL RIO        MOCLDY    75  48  38 N28G41    29.55R
EL PASO        PTCLDY    58  34  40 W22G37    29.84R
HOUSTON INT    MOCLDY    75  72  90 E9        29.61F
LUBBOCK        LGT RAIN  54  51  90 NE5       29.83R
SAN ANGELO     MOCLDY    74  42  31 NW22G30   29.65R
SAN ANTONIO    CLOUDY    78  73  84 SE18G26   29.53F
WACO           PTCLDY    75  69  81 SE14G28   29.54R
WICHITA FALLS  NOT AVBL
$$
...OTHER LOCATIONS IN NEW MEXICO...

CITY           SKY/WX    TMP DP  RH WIND       PRES   REMARKS
ALAMAGORDO     MOCLDY    54  36  50 N5        29.82S
ALBUQUERQUE    CLOUDY    47  42  83 W6        29.85R
CANNON AFB     CLOUDY    55  46  72 E25G31    29.77R
CLOVIS         CLOUDY    54  45  71 E21G29    29.79R
HOLLOMAN AFB   NOT AVBL
ROSWELL        CLOUDY    56  37  49 NW9       29.76R
RUIDOSO        MOCLDY    41  32  70 NW9G17    29.87R WCI  35
SANTA FE       MOCLDY    40  36  86 NW5       29.85R WCI  37
TRUTH OR CONSE MOCLDY    52  37  56 W6        29.84R
TUCUMCARI      CLOUDY    51  45  79 E23G33    29.82R
$$

USA.gov is the U.S. government's official web portal to all federal, state and local government web resources and services.